Back to catalog

STARLINK-5664

AliveCommunicationsVLEO
NORAD 55360·PAYLOAD·🇺🇸 United States

Launched Jan 26, 2023 from Cape Canaveral Space Force Station

Loading…

Next Passes (next 24 hours)

TLE

FreshSource: CelesTrak SupGP

Epoch: Sep 15, 2026, 01:59 UTC

1 55360C 23013AF  26258.08312500  .00022867  00000+0  82826-3 0  2581
2 55360  43.0022 331.8181 0001413 266.6901 315.9312 15.27566523    13

Track STARLINK-5664 in real time with AllMySat

Download on the App Store